Regional Weather Roundup
Issued by NWS

Home | Current Version | Previous Version | Text Only | Print | Product List | Glossary On
Versions: 1 2 3 4 5 6 7 8 9 10 11 12 13 14 15 16 17 18 19 20 21 22 23 24 25 26 27 28 29 30 31 32 33 34 35 36 37 38 39 40 41 42 43 44 45 46 47 48 49 50
000
ASUS43 KOAX 221310
RWRNE

WEATHER ROUNDUP FOR NEBRASKA
NATIONAL WEATHER SERVICE OMAHA NE
800 AM CDT FRI MAY 22 2015

NOTES: SATELLITE DATA IS BEING USED TO AUGMENT CLOUD COVER ABOVE
       12000 FEET.
       "FAIR" INDICATES FEW OR NO CLOUDS BELOW 12,000 FEET WITH NO
       SIGNIFICANT WEATHER AND/OR OBSTRUCTIONS TO VISIBILITY.

  * THESE STATIONS DO NOT REPORT WEATHER SUCH AS RAIN...SNOW OR FOG.

NEZ001>004-019>022-054>056-221400-
NEBRASKA PANHANDLE

CITY           SKY/WX    TMP DP  RH WIND       PRES   REMARKS
SCOTTSBLUFF    CLOUDY    49  45  86 E15G21    30.07S
ALLIANCE       CLOUDY    48  44  86 SE14      30.09S
CHADRON        CLOUDY    52  44  74 SE12      30.08S
KIMBALL          N/A    N/A N/A N/A MISG        N/A
SIDNEY         LGT RAIN  46  44  93 SE15      30.10R
$$

NEZ057>060-069>072-079>082-221400-
SOUTHWEST NEBRASKA

CITY           SKY/WX    TMP DP  RH WIND       PRES   REMARKS
NORTH PLATTE   CLOUDY    46  43  89 E8        30.16R
IMPERIAL       LGT RAIN  47  45  93 SE8       30.12S
LEXINGTON      CLOUDY    48  45  90 SE5       30.18S
MCCOOK         LGT RAIN  48  46  93 SE8       30.14S FOG
OGALLALA       DRIZZLE   48  44  87 SE7       30.13S
$$

NEZ005>010-023>029-035>040-094-221400-
NORTH CENTRAL NEBRASKA

CITY           SKY/WX    TMP DP  RH WIND       PRES   REMARKS
VALENTINE      PTSUNNY   48  41  76 CALM      30.16R
AINSWORTH      PTSUNNY   47  43  83 S5        30.17S
BROKEN BOW     PTSUNNY   47  41  80 CALM      30.18R
O`NEILL        PTSUNNY   49  41  74 SE3       30.19S
ORD            PTSUNNY   44  40  85 CALM      30.19R
THEDFORD       PTSUNNY   46  42  87 SE5       30.17S
$$

NEZ041-046>049-061>064-073>077-083>087-221400-
SOUTH CENTRAL NEBRASKA

CITY           SKY/WX    TMP DP  RH WIND       PRES   REMARKS
GRAND ISLAND   CLOUDY    49  45  86 CALM      30.21R
AURORA         CLOUDY    49  46  91 CALM      30.21R
HASTINGS       CLOUDY    50  43  77 S3        30.20R
HEBRON         CLOUDY    48  45  88 CALM      30.23R
HOLDREGE       CLOUDY    48  44  84 SE5       30.19R
KEARNEY *      CLOUDY    46  43  87 CALM      30.19S
YORK           CLOUDY    50  46  87 CALM      30.21R
$$

NEZ011>018-030>034-042>045-221400-
NORTHEAST NEBRASKA

CITY           SKY/WX    TMP DP  RH WIND       PRES   REMARKS
NORFOLK        PTSUNNY   51  44  77 CALM      30.20R
ALBION         PTSUNNY   46  41  82 CALM      30.20S
BLAIR          PTSUNNY   54  42  63 CALM      30.21S
COLUMBUS *     PTSUNNY   50  39  66 E3        30.24S
FREMONT        MOSUNNY   53  44  72 CALM      30.22R
TEKAMAH        MOSUNNY   54  43  66 CALM      30.21S
WAYNE          MOSUNNY   49  44  81 CALM      30.22R
$$

NEZ050>053-065>068-078-088>093-221400-
SOUTHEAST NEBRASKA

CITY           SKY/WX    TMP DP  RH WIND       PRES   REMARKS
LINCOLN        PTSUNNY   53  46  77 CALM      30.22S
OMAHA EPPLEY   CLOUDY    55  47  74 CALM      30.22R
BEATRICE       CLOUDY    49  46  88 CALM      30.23R
FALLS CITY     CLOUDY    52  48  86 CALM      30.22R
NEBRASKA CITY  PTSUNNY   55  43  65 CALM      30.22S
PLATTSMOUTH    PTSUNNY   55  43  66 CALM      30.21S
$$

NEZ044-045-051>053-067-221400-
OMAHA AREA

CITY           SKY/WX    TMP DP  RH WIND       PRES   REMARKS
OMAHA EPPLEY   CLOUDY    55  47  74 CALM      30.22R
BLAIR          PTSUNNY   54  42  63 CALM      30.21S
FREMONT        MOSUNNY   53  44  72 CALM      30.22R
MILLARD        MOSUNNY   55  46  73 CALM      30.22S
OFFUTT AFB     PTSUNNY   53  48  83 CALM      30.21R
PLATTSMOUTH    PTSUNNY   55  43  66 CALM      30.21S
WAHOO          FAIR      54  44  68 CALM      30.22R
$$



USA.gov is the U.S. government's official web portal to all federal, state and local government web resources and services.